| time (UTC) | temp C | wind direction | speed KPH | gust KPH | rain 1hr cm | rain 24hr cm | rain mn cm | humidity % | barometer mb |
| 20260507141519 | 17 | 26 | 1.6 | 6.4 | 0.03 | 1.93 | 1.93 | 88 | 1007.9 |
| 20260507140611 | 16 | 0 | 3.2 | 6.4 | 0.05 | 1.93 | 1.93 | 88 | 1007.9 |
| 20260507135605 | 16 | 307 | 3.2 | 6.4 | 0.05 | 1.93 | 1.93 | 90 | 1007.9 |
| 20260507134556 | 16 | 344 | 6.4 | 11.3 | 0.10 | 1.93 | 1.93 | 91 | 1007.9 |
| 20260507133548 | 16 | 330 | 3.2 | 6.4 | 0.15 | 1.93 | 1.93 | 92 | 1008.4 |
| 20260507132541 | 15 | 357 | 1.6 | 4.8 | 0.15 | 1.88 | 1.88 | 92 | 1008.6 |
| 20260507131532 | 15 | 21 | 8.0 | 16.1 | 0.33 | 1.88 | 1.88 | 94 | 1008.8 |
| 20260507130545 | 16 | 45 | 1.6 | 3.2 | 0.69 | 1.85 | 1.85 | 96 | 1009.0 |
| 20260507125517 | 16 | 0.0 | 1.6 | 0.81 | 1.85 | 1.85 | 96 | 1008.7 | |
| 20260507124609 | 15 | 326 | 1.6 | 6.4 | 0.89 | 1.83 | 1.83 | 95 | 1008.8 |
| 20260507123602 | 15 | 180 | 0.0 | 3.2 | 1.19 | 1.78 | 1.78 | 94 | 1009.1 |
| 20260507122555 | 14 | 146 | 1.6 | 6.4 | 1.32 | 1.75 | 1.75 | 93 | 1009.1 |
| 20260507121548 | 13 | 215 | 3.2 | 8.0 | 1.19 | 1.55 | 1.55 | 92 | 1009.2 |
| 20260507120539 | 13 | 180 | 6.4 | 11.3 | 0.84 | 1.17 | 1.17 | 90 | 1009.2 |
| 20260507115551 | 13 | 146 | 16.1 | 24.1 | 0.71 | 1.04 | 1.04 | 90 | 1009.1 |
| 20260507114523 | 14 | 172 | 17.7 | 27.4 | 0.61 | 0.94 | 0.94 | 89 | 1010.0 |
| 20260507113616 | 15 | 157 | 8.0 | 20.9 | 0.28 | 0.56 | 0.56 | 87 | 1009.6 |
| 20260507112609 | 15 | 272 | 4.8 | 9.7 | 0.13 | 0.43 | 0.43 | 87 | 1009.1 |
| 20260507111622 | 16 | 230 | 4.8 | 8.0 | 0.10 | 0.36 | 0.36 | 90 | 1009.2 |
| 20260507110554 | 17 | 38 | 9.7 | 17.7 | 0.05 | 0.33 | 0.33 | 91 | 1009.0 |
| 20260507105607 | 17 | 48 | 6.4 | 12.9 | 0.05 | 0.33 | 0.33 | 91 | 1008.9 |
| 20260507104557 | 17 | 47 | 11.3 | 17.7 | 0.05 | 0.33 | 0.33 | 92 | 1008.9 |
| 20260507103550 | 17 | 45 | 8.0 | 17.7 | 0.03 | 0.30 | 0.30 | 92 | 1009.2 |
| 20260507102522 | 16 | 11 | 11.3 | 16.1 | 0.05 | 0.30 | 0.30 | 92 | 1009.3 |
| 20260507101614 | 16 | 32 | 6.4 | 12.9 | 0.03 | 0.28 | 0.28 | 91 | 1009.3 |
| 20260507100606 | 16 | 15 | 4.8 | 14.5 | 0.05 | 0.28 | 0.28 | 91 | 1009.1 |
| 20260507095619 | 16 | 29 | 11.3 | 17.7 | 0.05 | 0.28 | 0.28 | 91 | 1009.1 |
| 20260507094611 | 16 | 29 | 9.7 | 17.7 | 0.10 | 0.28 | 0.28 | 91 | 1009.1 |
| 20260507093543 | 16 | 19 | 8.0 | 12.9 | 0.10 | 0.28 | 0.28 | 90 | 1008.9 |
| 20260507092535 | 16 | 37 | 12.9 | 20.9 | 0.05 | 0.23 | 0.23 | 90 | 1008.9 |
| 20260507091548 | 16 | 47 | 14.5 | 22.5 | 0.10 | 0.23 | 0.23 | 91 | 1009.1 |
| 20260507090521 | 16 | 90 | 11.3 | 12.9 | 0.15 | 0.20 | 0.20 | 91 | 1009.2 |
| 20260507085613 | 16 | 35 | 8.0 | 16.1 | 0.18 | 0.20 | 0.20 | 91 | 1009.2 |
| 20260507084605 | 16 | 31 | 6.4 | 11.3 | 0.18 | 0.18 | 0.18 | 91 | 1009.1 |
| 20260507083557 | 16 | 35 | 9.7 | 14.5 | 0.18 | 0.18 | 0.18 | 91 | 1009.1 |
| 20260507082550 | 16 | 38 | 6.4 | 12.9 | 0.18 | 0.18 | 0.18 | 90 | 1009.2 |
| 20260507081542 | 17 | 54 | 9.7 | 14.5 | 0.15 | 0.15 | 0.15 | 87 | 1009.1 |
| 20260507080534 | 17 | 90 | 9.7 | 12.9 | 0.05 | 0.05 | 0.05 | 80 | 1009.1 |
| 20260507075527 | 18 | 55 | 11.3 | 19.3 | 0.03 | 0.03 | 0.03 | 77 | 1008.9 |
| 20260507074520 | 18 | 36 | 11.3 | 19.3 | 0.00 | 0.00 | 0.00 | 75 | 1009.0 |
| 20260507073612 | 18 | 40 | 14.5 | 24.1 | 0.00 | 0.00 | 0.00 | 75 | 1008.9 |
| 20260507072604 | 18 | 34 | 11.3 | 17.7 | 0.00 | 0.00 | 0.00 | 76 | 1008.8 |
| 20260507071557 | 18 | 40 | 11.3 | 22.5 | 0.00 | 0.00 | 0.00 | 78 | 1008.9 |
| 20260507070609 | 17 | 36 | 11.3 | 17.7 | 0.00 | 0.00 | 0.00 | 80 | 1008.7 |
| 20260507065541 | 17 | 30 | 11.3 | 24.1 | 0.00 | 0.00 | 0.00 | 80 | 1008.5 |
| 20260507064553 | 17 | 31 | 11.3 | 20.9 | 0.00 | 0.00 | 0.00 | 76 | 1008.5 |
| 20260507063547 | 17 | 33 | 4.8 | 14.5 | 0.00 | 0.00 | 0.00 | 75 | 1008.2 |
| 20260507062518 | 17 | 12 | 3.2 | 6.4 | 0.00 | 0.00 | 0.00 | 75 | 1008.2 |
| 20260507061611 | 17 | 1 | 3.2 | 6.4 | 0.00 | 0.00 | 0.00 | 75 | 1008.3 |
| 20260507060603 | 17 | 0 | 4.8 | 9.7 | 0.00 | 0.00 | 0.00 | 79 | 1008.3 |
| 20260507055555 | 17 | 0 | 3.2 | 6.4 | 0.00 | 0.00 | 0.00 | 79 | 1008.2 |
| 20260507054548 | 17 | 11 | 1.6 | 4.8 | 0.00 | 0.00 | 0.00 | 80 | 1008.3 |
| 20260507053540 | 17 | 45 | 1.6 | 6.4 | 0.00 | 0.00 | 0.00 | 80 | 1008.3 |
| 20260507052552 | 17 | 0 | 1.6 | 4.8 | 0.00 | 0.00 | 0.00 | 80 | 1008.1 |
| 20260507051526 | 17 | 17 | 1.6 | 4.8 | 0.00 | 0.00 | 0.00 | 80 | 1008.0 |
| 20260507050517 | 17 | 0 | 3.2 | 3.2 | 0.00 | 0.00 | 0.00 | 80 | 1007.9 |
| 20260507045611 | 17 | 41 | 8.0 | 14.5 | 0.00 | 0.00 | 0.00 | 80 | 1007.9 |
| 20260507044602 | 17 | 26 | 8.0 | 12.9 | 0.00 | 0.00 | 0.00 | 80 | 1007.8 |
| 20260507043556 | 17 | 45 | 6.4 | 12.9 | 0.00 | 0.00 | 0.00 | 80 | 1008.0 |
| 20260507042547 | 17 | 38 | 9.7 | 14.5 | 0.00 | 0.00 | 0.00 | 80 | 1007.9 |
| 20260507041539 | 17 | 28 | 9.7 | 16.1 | 0.00 | 0.00 | 0.00 | 79 | 1007.8 |
| 20260507040531 | 17 | 31 | 9.7 | 16.1 | 0.00 | 0.00 | 0.00 | 81 | 1008.0 |
| 20260507035544 | 17 | 36 | 4.8 | 11.3 | 0.00 | 0.00 | 0.00 | 80 | 1008.0 |
| 20260507034517 | 17 | 45 | 3.2 | 8.0 | 0.00 | 0.00 | 0.00 | 78 | 1007.9 |
| 20260507033609 | 17 | 338 | 1.6 | 6.4 | 0.00 | 0.00 | 0.00 | 77 | 1007.7 |
| 20260507032601 | 17 | 0 | 3.2 | 6.4 | 0.00 | 0.00 | 0.00 | 77 | 1007.7 |
| 20260507031554 | 17 | 0 | 0.0 | 4.8 | 0.00 | 0.00 | 0.00 | 78 | 1007.9 |
| 20260507030546 | 17 | 4 | 3.2 | 6.4 | 0.00 | 0.00 | 0.00 | 78 | 1008.0 |
| 20260507025539 | 17 | 342 | 1.6 | 6.4 | 0.00 | 0.00 | 0.00 | 78 | 1008.0 |
| 20260507024531 | 17 | 24 | 1.6 | 6.4 | 0.00 | 0.00 | 0.00 | 79 | 1007.9 |
| 20260507023524 | 17 | 354 | 3.2 | 6.4 | 0.00 | 0.00 | 0.00 | 80 | 1008.1 |
| 20260507022516 | 17 | 0 | 3.2 | 6.4 | 0.00 | 0.00 | 0.00 | 80 | 1008.2 |
| 20260507021609 | 17 | 344 | 1.6 | 6.4 | 0.00 | 0.00 | 0.00 | 81 | 1008.1 |
| 20260507020622 | 17 | 0 | 3.2 | 4.8 | 0.00 | 0.00 | 0.00 | 81 | 1008.2 |
| 20260507015554 | 17 | 357 | 3.2 | 6.4 | 0.00 | 0.00 | 0.00 | 81 | 1008.3 |
| 20260507014546 | 17 | 349 | 3.2 | 6.4 | 0.00 | 0.00 | 0.00 | 79 | 1008.5 |
| 20260507013539 | 17 | 0 | 1.6 | 6.4 | 0.00 | 0.00 | 0.00 | 77 | 1008.7 |
| 20260507012532 | 17 | 0 | 0.0 | 3.2 | 0.00 | 0.00 | 0.00 | 79 | 1008.8 |
| 20260507011545 | 17 | 0 | 0.0 | 4.8 | 0.00 | 0.00 | 0.00 | 80 | 1008.7 |
| 20260507010517 | 17 | 0 | 1.6 | 4.8 | 0.00 | 0.00 | 0.00 | 80 | 1008.7 |
| 20260507005611 | 17 | 0 | 3.2 | 6.4 | 0.00 | 0.00 | 0.00 | 79 | 1008.8 |
| 20260507004602 | 17 | 0 | 3.2 | 4.8 | 0.00 | 0.00 | 0.00 | 75 | 1008.7 |
| 20260507003555 | 17 | 0 | 1.6 | 3.2 | 0.00 | 0.00 | 0.00 | 75 | 1008.7 |
| 20260507002548 | 17 | 0 | 0.0 | 1.6 | 0.00 | 0.00 | 0.00 | 75 | 1008.8 |
| 20260507001540 | 17 | 0 | 0.0 | 3.2 | 0.00 | 0.00 | 0.00 | 74 | 1008.7 |
| 20260507000532 | 17 | 0 | 3.2 | 4.8 | 0.00 | 0.00 | 0.00 | 73 | 1008.7 |
| 20260506235525 | 17 | 0 | 1.6 | 3.2 | 0.00 | 0.00 | 0.00 | 73 | 1008.7 |
| 20260506234517 | 17 | 41 | 1.6 | 4.8 | 0.00 | 0.00 | 0.00 | 73 | 1008.9 |
| 20260506233710 | 17 | 45 | 4.8 | 6.4 | 0.00 | 0.00 | 0.00 | 73 | 1009.0 |
| 20260506232603 | 18 | 45 | 4.8 | 11.3 | 0.00 | 0.00 | 0.00 | 73 | 1009.1 |
| 20260506231617 | 18 | 19 | 4.8 | 9.7 | 0.00 | 0.00 | 0.00 | 73 | 1009.1 |
| 20260506230547 | 17 | 35 | 4.8 | 8.0 | 0.00 | 0.00 | 0.00 | 73 | 1009.2 |
| 20260506225540 | 18 | 40 | 3.2 | 6.4 | 0.00 | 0.00 | 0.00 | 73 | 1009.2 |
| 20260506224533 | 18 | 45 | 3.2 | 8.0 | 0.00 | 0.00 | 0.00 | 72 | 1009.2 |
| 20260506223526 | 18 | 8 | 3.2 | 6.4 | 0.00 | 0.00 | 0.00 | 73 | 1009.2 |
| 20260506222518 | 18 | 33 | 4.8 | 12.9 | 0.00 | 0.00 | 0.00 | 73 | 1009.0 |
| 20260506221610 | 18 | 45 | 6.4 | 9.7 | 0.00 | 0.00 | 0.00 | 72 | 1008.9 |
| 20260506220603 | 18 | 45 | 4.8 | 6.4 | 0.00 | 0.00 | 0.00 | 72 | 1009.1 |
| 20260506215556 | 18 | 35 | 4.8 | 8.0 | 0.00 | 0.00 | 0.00 | 71 | 1009.1 |
| 20260506214607 | 18 | 45 | 4.8 | 11.3 | 0.00 | 0.00 | 0.00 | 72 | 1009.4 |
| 20260506213539 | 18 | 45 | 4.8 | 8.0 | 0.00 | 0.00 | 0.00 | 72 | 1009.4 |
| 20260506212531 | 18 | 64 | 4.8 | 11.3 | 0.00 | 0.00 | 0.00 | 72 | 1009.7 |
| 20260506211523 | 18 | 45 | 3.2 | 8.0 | 0.00 | 0.00 | 0.00 | 72 | 1009.6 |
| 20260506210617 | 18 | 45 | 4.8 | 6.4 | 0.00 | 0.00 | 0.00 | 73 | 1009.5 |
| 20260506205608 | 18 | 81 | 3.2 | 4.8 | 0.00 | 0.00 | 0.00 | 73 | 1009.5 |
| 20260506204620 | 18 | 128 | 3.2 | 6.4 | 0.00 | 0.00 | 0.00 | 73 | 1009.4 |
| 20260506203552 | 18 | 60 | 3.2 | 6.4 | 0.00 | 0.00 | 0.00 | 72 | 1009.4 |
| 20260506202545 | 18 | 90 | 3.2 | 6.4 | 0.00 | 0.00 | 0.00 | 73 | 1009.3 |
| 20260506201556 | 18 | 82 | 3.2 | 6.4 | 0.00 | 0.00 | 0.00 | 72 | 1009.2 |
| 20260506200548 | 18 | 45 | 3.2 | 6.4 | 0.00 | 0.00 | 0.00 | 71 | 1009.0 |
| 20260506195520 | 18 | 105 | 3.2 | 11.3 | 0.00 | 0.00 | 0.00 | 72 | 1008.8 |
| 20260506194613 | 18 | 58 | 6.4 | 11.3 | 0.00 | 0.00 | 0.00 | 72 | 1008.7 |
| 20260506193606 | 18 | 129 | 4.8 | 9.7 | 0.00 | 0.00 | 0.00 | 72 | 1008.6 |
| 20260506192557 | 18 | 71 | 4.8 | 9.7 | 0.00 | 0.00 | 0.00 | 72 | 1008.4 |
| 20260506191550 | 18 | 62 | 4.8 | 8.0 | 0.00 | 0.00 | 0.00 | 72 | 1008.4 |
| 20260506190541 | 18 | 135 | 3.2 | 6.4 | 0.00 | 0.00 | 0.00 | 71 | 1008.5 |
| 20260506185533 | 18 | 77 | 3.2 | 6.4 | 0.00 | 0.00 | 0.00 | 71 | 1008.3 |
| 20260506184526 | 18 | 83 | 6.4 | 12.9 | 0.00 | 0.00 | 0.00 | 71 | 1008.2 |
| 20260506183517 | 18 | 116 | 6.4 | 11.3 | 0.00 | 0.00 | 0.00 | 70 | 1008.0 |
| 20260506182610 | 18 | 114 | 4.8 | 12.9 | 0.00 | 0.00 | 0.00 | 70 | 1007.9 |
| 20260506181602 | 19 | 102 | 4.8 | 9.7 | 0.00 | 0.00 | 0.00 | 70 | 1008.0 |
| 20260506180615 | 19 | 125 | 4.8 | 9.7 | 0.00 | 0.00 | 0.00 | 70 | 1008.0 |
| 20260506175606 | 19 | 84 | 4.8 | 12.9 | 0.00 | 0.00 | 0.00 | 70 | 1007.9 |
| 20260506174538 | 19 | 87 | 8.0 | 14.5 | 0.00 | 0.00 | 0.00 | 70 | 1007.9 |
| 20260506173551 | 20 | 54 | 6.4 | 12.9 | 0.00 | 0.00 | 0.00 | 70 | 1007.9 |
| 20260506172523 | 19 | 117 | 6.4 | 12.9 | 0.00 | 0.00 | 0.00 | 70 | 1007.8 |
| 20260506171615 | 20 | 121 | 8.0 | 12.9 | 0.00 | 0.00 | 0.00 | 69 | 1007.8 |
| 20260506170609 | 20 | 23 | 9.7 | 12.9 | 0.00 | 0.00 | 0.00 | 67 | 1007.7 |
| 20260506165600 | 20 | 89 | 6.4 | 14.5 | 0.00 | 0.00 | 0.00 | 67 | 1007.8 |
| 20260506164552 | 20 | 40 | 6.4 | 12.9 | 0.00 | 0.00 | 0.00 | 68 | 1007.8 |
| 20260506163544 | 20 | 150 | 11.3 | 17.7 | 0.00 | 0.00 | 0.00 | 69 | 1007.7 |
| 20260506162558 | 20 | 99 | 9.7 | 17.7 | 0.00 | 0.00 | 0.00 | 69 | 1007.8 |
| 20260506161529 | 20 | 150 | 9.7 | 14.5 | 0.00 | 0.00 | 0.00 | 68 | 1007.9 |
| 20260506160600 | 20 | 135 | 9.7 | 12.9 | 0.00 | 0.00 | 0.00 | 67 | 1008.0 |
| 20260506155613 | 20 | 111 | 9.7 | 17.7 | 0.00 | 0.00 | 0.00 | 65 | 1007.9 |
| 20260506154606 | 21 | 92 | 9.7 | 16.1 | 0.00 | 0.00 | 0.00 | 64 | 1007.8 |
| 20260506153558 | 21 | 56 | 12.9 | 19.3 | 0.00 | 0.00 | 0.00 | 63 | 1007.7 |
| 20260506152549 | 21 | 64 | 12.9 | 20.9 | 0.00 | 0.00 | 0.00 | 62 | 1007.8 |
| 20260506151541 | 21 | 64 | 11.3 | 20.9 | 0.00 | 0.00 | 0.00 | 61 | 1007.8 |
| 20260506150534 | 21 | 51 | 11.3 | 22.5 | 0.00 | 0.00 | 0.00 | 62 | 1007.9 |
| 20260506145526 | 21 | 143 | 8.0 | 14.5 | 0.00 | 0.00 | 0.00 | 61 | 1007.9 |
| 20260506144520 | 21 | 358 | 9.7 | 16.1 | 0.00 | 0.00 | 0.00 | 60 | 1007.9 |
| 20260506143631 | 22 | 62 | 11.3 | 24.1 | 0.00 | 0.00 | 0.00 | 59 | 1007.9 |
| 20260506142603 | 22 | 58 | 9.7 | 12.9 | 0.00 | 0.00 | 0.00 | 60 | 1007.8 |